• In Russia
  • List of Countries
  • For 7 days
  • Water Temperature
  • Satellite Maps
  • Weather Map
  • Weather Widgets
  • user-avatar
    Login

    Hourly Weather Djibouti

    Today, 22 May, Tuesday

    Time Temperature Precipitation Wind Pressure Humidity
    00:00 +34°C° 0 mm 2 mps 755 mmHg 58%
    01:00 +33°C° 0 mm 1 mps 755 mmHg 59%
    02:00 +32°C° 0 mm 1 mps 755 mmHg 60%
    03:00 +32°C° 0 mm 1 mps 754 mmHg 62%
    04:00 +32°C° 0 mm 1 mps 754 mmHg 62%
    05:00 +32°C° 0 mm 1 mps 755 mmHg 62%
    06:00 +32°C° 0 mm 1 mps 755 mmHg 62%
    07:00 +33°C° 0 mm 1 mps 755 mmHg 55%
    08:00 +34°C° 0 mm 1 mps 756 mmHg 48%
    09:00 +36°C° 0 mm 1 mps 756 mmHg 42%
    10:00 +37°C° 0 mm 1 mps 756 mmHg 38%
    11:00 +39°C° 0 mm 1 mps 755 mmHg 34%
    12:00 +41°C° 0 mm 2 mps 755 mmHg 30%
    13:00 +41°C° 0 mm 2 mps 754 mmHg 29%
    14:00 +43°C° 0 mm 3 mps 754 mmHg 27%
    15:00 +43°C° 0 mm 4 mps 753 mmHg 26%
    16:00 +43°C° 0 mm 4 mps 753 mmHg 28%
    17:00 +42°C° 0 mm 3 mps 753 mmHg 31%
    18:00 +40°C° 0 mm 3 mps 753 mmHg 33%
    19:00 +39°C° 0 mm 3 mps 753 mmHg 37%
    20:00 +38°C° 0 mm 3 mps 754 mmHg 40%
    21:00 +38°C° 0 mm 2 mps 754 mmHg 44%
    22:00 +37°C° 0 mm 2 mps 754 mmHg 45%
    23:00 +36°C° 0 mm 1 mps 754 mmHg 46%

    Tomorrow, 23 May, Wednesday

    Time Temperature Precipitation Wind Pressure Humidity
    00:00 +36°C° 0 mm 1 mps 754 mmHg 47%
    01:00 +36°C° 0 mm 1 mps 754 mmHg 46%
    02:00 +35°C° 0 mm 1 mps 754 mmHg 45%
    03:00 +35°C° 0 mm 1 mps 754 mmHg 44%
    04:00 +35°C° 0 mm 1 mps 754 mmHg 43%
    05:00 +35°C° 0 mm 1 mps 754 mmHg 42%
    06:00 +34°C° 0 mm 1 mps 754 mmHg 41%
    07:00 +36°C° 0 mm 1 mps 754 mmHg 36%
    08:00 +37°C° 0 mm 1 mps 754 mmHg 30%
    09:00 +40°C° 0 mm 1 mps 755 mmHg 24%
    10:00 +41°C° 0 mm 1 mps 755 mmHg 22%
    11:00 +42°C° 0 mm 2 mps 754 mmHg 20%
    12:00 +43°C° 0 mm 2 mps 754 mmHg 19%
    13:00 +43°C° 0 mm 2 mps 753 mmHg 18%
    14:00 +45°C° 0 mm 3 mps 753 mmHg 18%
    15:00 +45°C° 0 mm 3 mps 752 mmHg 18%
    16:00 +44°C° 0 mm 3 mps 752 mmHg 21%
    17:00 +43°C° 0 mm 4 mps 752 mmHg 23%
    18:00 +42°C° 0 mm 4 mps 752 mmHg 26%
    19:00 +41°C° 0 mm 4 mps 752 mmHg 29%
    20:00 +40°C° 0 mm 4 mps 753 mmHg 32%
    21:00 +38°C° 0 mm 4 mps 753 mmHg 35%
    22:00 +38°C° 0 mm 3 mps 753 mmHg 36%
    23:00 +38°C° 0 mm 3 mps 753 mmHg 37%

    Day after tomorrow, 24 May, Thursday

    Time Temperature Precipitation Wind Pressure Humidity
    00:00 +37°C° 0 mm 3 mps 753 mmHg 38%
    01:00 +37°C° 0 mm 2 mps 753 mmHg 39%
    02:00 +36°C° 0 mm 2 mps 752 mmHg 40%
    03:00 +35°C° 0 mm 1 mps 752 mmHg 40%
    04:00 +35°C° 0 mm 1 mps 752 mmHg 41%
    05:00 +34°C° 0 mm 1 mps 752 mmHg 41%
    06:00 +34°C° 0 mm 1 mps 752 mmHg 41%
    07:00 +36°C° 0 mm 1 mps 753 mmHg 36%
    08:00 +38°C° 0 mm 2 mps 754 mmHg 32%
    09:00 +39°C° 0 mm 2 mps 754 mmHg 27%
    10:00 +40°C° 0 mm 3 mps 754 mmHg 27%
    11:00 +42°C° 0 mm 3 mps 754 mmHg 27%
    12:00 +42°C° 0 mm 3 mps 753 mmHg 27%
    13:00 +42°C° 0 mm 4 mps 753 mmHg 29%
    14:00 +42°C° 0 mm 4 mps 752 mmHg 31%
    15:00 +42°C° 0 mm 4 mps 751 mmHg 33%
    16:00 +40°C° 0 mm 3 mps 751 mmHg 37%
    17:00 +40°C° 0 mm 3 mps 750 mmHg 40%
    18:00 +39°C° 0 mm 3 mps 750 mmHg 43%
    19:00 +38°C° 0 mm 3 mps 751 mmHg 45%
    20:00 +38°C° 0 mm 2 mps 751 mmHg 47%
    21:00 +37°C° 0 mm 2 mps 752 mmHg 49%
    22:00 +37°C° 0 mm 2 mps 751 mmHg 48%
    23:00 +37°C° 0 mm 2 mps 751 mmHg 48%

    25 May, Friday

    Time Temperature Precipitation Wind Pressure Humidity
    00:00 +37°C° 0 mm 2 mps 751 mmHg 47%
    01:00 +37°C° 0 mm 2 mps 751 mmHg 46%
    02:00 +37°C° 0 mm 2 mps 750 mmHg 45%
    03:00 +36°C° 0 mm 2 mps 750 mmHg 44%
    04:00 +35°C° 0 mm 1 mps 750 mmHg 44%
    05:00 +35°C° 0 mm 1 mps 751 mmHg 44%
    06:00 +35°C° 0 mm 1 mps 751 mmHg 44%
    07:00 +36°C° 0 mm 2 mps 752 mmHg 42%
    08:00 +37°C° 0 mm 2 mps 753 mmHg 40%
    09:00 +38°C° 0 mm 2 mps 753 mmHg 38%
    10:00 +39°C° 0 mm 2 mps 753 mmHg 36%
    11:00 +40°C° 0 mm 3 mps 752 mmHg 33%
    12:00 +42°C° 0 mm 3 mps 752 mmHg 31%
    13:00 +42°C° 0 mm 3 mps 751 mmHg 30%
    14:00 +42°C° 0 mm 3 mps 750 mmHg 30%
    15:00 +43°C° 0 mm 3 mps 750 mmHg 30%
    16:00 +42°C° 0 mm 3 mps 749 mmHg 33%
    17:00 +40°C° 0 mm 3 mps 749 mmHg 35%
    18:00 +40°C° 0 mm 3 mps 749 mmHg 38%
    19:00 +39°C° 0 mm 2 mps 750 mmHg 39%
    20:00 +39°C° 0 mm 2 mps 751 mmHg 41%
    21:00 +37°C° 0 mm 1 mps 751 mmHg 42%
    22:00 +37°C° 0 mm 1 mps 751 mmHg 43%
    23:00 +37°C° 0 mm 1 mps 751 mmHg 44%

    26 May, Saturday

    Time Temperature Precipitation Wind Pressure Humidity
    00:00 +36°C° 0 mm 1 mps 751 mmHg 45%
    01:00 +36°C° 0 mm 1 mps 750 mmHg 45%
    02:00 +36°C° 0 mm 1 mps 750 mmHg 45%
    03:00 +35°C° 0 mm 1 mps 750 mmHg 45%
    04:00 +35°C° 0 mm 1 mps 750 mmHg 45%
    05:00 +36°C° 0 mm 2 mps 750 mmHg 45%
    06:00 +36°C° 0 mm 2 mps 751 mmHg 45%
    07:00 +38°C° 0 mm 2 mps 751 mmHg 39%
    08:00 +39°C° 0 mm 2 mps 752 mmHg 34%
    09:00 +41°C° 0 mm 2 mps 752 mmHg 28%
    10:00 +42°C° 0 mm 2 mps 752 mmHg 24%
    11:00 +45°C° 0 mm 2 mps 751 mmHg 20%
    12:00 +46°C° 0 mm 2 mps 751 mmHg 16%
    13:00 +46°C° 0 mm 3 mps 750 mmHg 16%
    14:00 +47°C° 0 mm 3 mps 750 mmHg 16%
    15:00 +48°C° 0 mm 4 mps 749 mmHg 16%
    16:00 +47°C° 0 mm 4 mps 749 mmHg 20%
    17:00 +44°C° 0 mm 4 mps 749 mmHg 25%
    18:00 +43°C° 0 mm 4 mps 749 mmHg 29%
    19:00 +42°C° 0 mm 3 mps 750 mmHg 31%
    20:00 +40°C° 0 mm 3 mps 750 mmHg 33%
    21:00 +40°C° 0 mm 3 mps 751 mmHg 35%
    22:00 +39°C° 0 mm 2 mps 751 mmHg 35%
    23:00 +39°C° 0 mm 2 mps 750 mmHg 35%

    27 May, Sunday

    Time Temperature Precipitation Wind Pressure Humidity
    00:00 +39°C° 0 mm 1 mps 750 mmHg 35%
    01:00 +38°C° 0 mm 2 mps 750 mmHg 35%
    02:00 +38°C° 0 mm 2 mps 750 mmHg 36%
    03:00 +38°C° 0 mm 2 mps 750 mmHg 36%
    04:00 +37°C° 0 mm 2 mps 750 mmHg 36%
    05:00 +37°C° 0 mm 2 mps 751 mmHg 36%
    06:00 +37°C° 0 mm 2 mps 751 mmHg 36%
    07:00 +38°C° 0 mm 2 mps 752 mmHg 32%
    08:00 +40°C° 0 mm 2 mps 752 mmHg 29%
    09:00 +41°C° 0 mm 2 mps 753 mmHg 26%
    10:00 +43°C° 0 mm 3 mps 752 mmHg 24%
    11:00 +44°C° 0 mm 3 mps 752 mmHg 23%
    12:00 +45°C° 0 mm 3 mps 751 mmHg 22%
    13:00 +45°C° 0 mm 4 mps 751 mmHg 22%
    14:00 +45°C° 0 mm 4 mps 750 mmHg 22%
    15:00 +45°C° 0 mm 4 mps 749 mmHg 23%
    16:00 +44°C° 0 mm 4 mps 749 mmHg 26%
    17:00 +43°C° 0 mm 3 mps 750 mmHg 29%
    18:00 +42°C° 0 mm 3 mps 750 mmHg 32%
    19:00 +42°C° 0 mm 3 mps 750 mmHg 33%
    20:00 +40°C° 0 mm 2 mps 750 mmHg 35%
    21:00 +39°C° 0 mm 2 mps 751 mmHg 36%
    22:00 +39°C° 0 mm 2 mps 751 mmHg 36%
    23:00 +39°C° 0 mm 2 mps 751 mmHg 37%
    Show more